Location: Red Rock Farm
(35.2100°N, 97.2200°W)
Time: 16:14:37
(UTC-05:00)

Daily predictions for brighter satellites

Satellite Brightness Start Highest point End
(mag) Time Altitude Azimuth Time Altitude Azimuth Time Altitude Azimuth
Cosmos 839 Rocket 4.3 20:32:38 10° S 20:38:41 43° ESE 20:44:26 10° NE
Cosmos 1782 Rocket 3.6 20:35:31 10° S 20:39:47 61° E 20:44:04 10° NNE
GPS 2-05 Rocket1 2.8 20:37:16 10° WSW 20:40:36 60° SSE 20:43:52 10° E
Cosmos 1378 Rocket 3.6 20:38:00 10° N 20:42:27 84° E 20:46:51 10° S
Meteor 1-14 Rocket 4.3 20:37:27 10° S 20:43:09 89° W 20:48:47 10° N
ATLAS 2AS CENTAUR R/B 4.2 20:38:57 10° SE 20:43:34 17° ESE 20:48:21 10° ENE
Meteor 1-25 Rocket 4.3 20:40:00 10° S 20:45:49 75° E 20:51:38 10° NNE
Cosmos 407 Rocket 3.9 20:43:06 10° N 20:48:17 48° ENE 20:53:23 10° SE
SJ-6B 3.3 20:44:42 10° S 20:48:40 67° WSW 20:52:45 10° NNW
Cosmos 1812 2.7 20:45:02 10° N 20:48:54 68° E 20:52:45 10° SSE
HJ-1C 3.7 20:45:53 10° S 20:49:17 71° W 20:52:42 10° NNW
NOSS 3-1 (A) 3.4 20:44:18 10° SSW 20:49:56 86° WNW 20:56:14 10° NNE
Cosmos 1190 Rocket 4.2 20:44:54 10° N 20:50:04 55° ENE 20:55:15 10° SSE
Cosmos 2360 4.2 20:44:57 10° S 20:50:35 65° ESE 20:56:14 10° NNE
Tiangong 1 3.2 20:48:29 10° WNW 20:50:36 19° N 20:52:43 10° NE
Cosmos 921 Rocket 2.9 20:47:03 10° S 20:51:11 66° ESE 20:55:20 10° NNE
Cosmos 1461 3.6 20:50:50 10° NW 20:55:16 61° WSW 20:59:49 10° SSE
CZ-4C R/B 3.1 20:48:35 10° NNW 20:56:01 87° WSW 21:04:06 10° SSE
Meteor 1-18 Rocket 4.3 20:51:13 10° N 20:57:09 71° E 21:03:03 10° SSE
Cosmos 2297 Rocket 3.2 20:53:12 10° NNW 20:58:37 47° WSW 21:03:58 10° S
Cosmos 1975 Rocket 3.1 20:55:09 10° N 20:59:37 68° E 21:04:00 10° SSE
DELTA 2 R/B (1) 4.0 20:55:51 10° WNW 21:01:25 61° N 21:06:44 11° E
Cosmos 1939 Rocket 3.9 20:58:26 11° SE 21:01:36 27° ENE 21:04:58 10° NNE
Cosmos 1655 Rocket 4.0 20:59:44 10° S 21:05:52 62° E 21:12:06 10° NNE
Cosmos 2026 Rocket 4.0 20:59:35 10° S 21:05:53 83° E 21:12:17 10° N
Cosmos 676 Rocket 4.4 21:01:02 10° N 21:06:07 45° ENE 21:10:44 12° SE
Intercosmos 25 Rocket 4.0 21:03:38 10° NNW 21:06:47 45° W 21:09:53 10° SSW
USA 186 1.8 21:05:37 10° SSE 21:08:52 70° ENE 21:12:14 10° N
Helios 1B rocket 3.5 21:07:06 10° NE 21:10:25 23° E 21:12:45 15° SE
Okean 1 3.3 21:08:12 10° N 21:12:09 64° E 21:16:05 10° SSE
Cosmos 1536 4.2 21:11:13 17° ESE 21:12:45 21° E 21:15:49 10° NE
Cosmos 44 Rocket 3.9 21:11:21 10° NNW 21:15:50 40° ENE 21:18:48 19° ESE
Iridium 30 4.2 21:13:41 10° S 21:16:30 81° W 21:19:55 10° N
Spot 2 Rocket 3.5 21:13:06 10° SSE 21:18:12 89° WSW 21:23:20 10° NNW
Lacrosse 5 rocket 2.5 21:15:12 10° NNW 21:18:23 26° NE 21:20:14 18° E
Cosmos 2322 Rocket 2.5 21:14:31 10° S 21:19:53 44° ESE 21:25:15 10° NE
SeaSat 1 2.8 21:17:01 10° NNE 21:21:55 70° WNW 21:26:49 10° SW
Cosmos 1536 Rocket 4.2 21:19:48 10° NNE 21:23:46 34° E 21:25:43 23° SE
Cosmos 1441 Rocket 4.1 21:21:30 10° NNW 21:25:06 48° W 21:28:42 10° S
Cosmos 2263 Rocket 3.7 21:21:32 10° N 21:25:46 21° ENE 21:28:02 17° E
Cosmos 1140 Rocket 3.8 21:21:12 10° N 21:26:15 47° ENE 21:29:22 22° SE
BREEZE-M DEB (TANK) 2.7 21:23:44 10° WSW 21:26:19 63° NNW 21:32:32 10° NE
NOSS 2-3 (C) 4.1 21:23:38 10° S 21:27:54 40° ESE 21:32:38 10° NE
Okean 2 Rocket 4.0 21:24:35 10° SSW 21:28:56 52° W 21:33:21 10° N
SL-16 R/B 2.3 21:23:38 10° S 21:29:06 53° ESE 21:34:37 10° NNE
Cosmos 1954 Rocket 4.1 21:23:58 10° N 21:29:15 61° ENE 21:32:51 20° SSE
H-2A R/B 4.0 21:31:59 12° ENE 21:32:37 12° ENE 21:34:25 10° NE
Meteor 1-29 3.8 21:31:29 10° NE 21:34:12 30° E 21:34:12 30° E
Cosmos 614 Rocket 4.2 21:31:35 10° N 21:36:32 49° ENE 21:38:58 28° SE
ERBS 4.4 21:35:47 10° WSW 21:38:53 30° NW 21:41:59 10° NNE
Helios 1A 3.2 21:38:36 31° SE 21:40:19 51° ENE 21:44:27 10° N
Lacrosse 5 2.4 21:38:50 10° S 21:43:24 34° ESE 21:47:58 10° ENE
Envisat 3.5 21:42:09 10° S 21:47:09 60° W 21:52:11 10° NNW
ERS-1 Rocket 3.6 21:46:08 31° ESE 21:47:27 36° ENE 21:52:02 10° N
Uosat 12 SS-18 rocket 4.3 21:45:22 10° SSW 21:49:57 87° WNW 21:55:33 10° NNE
Meteor 1-13 Rocket 4.3 21:46:17 10° N 21:52:17 86° E 21:56:25 21° S
Meteor 1-5 Rocket 4.2 21:50:03 28° SSE 21:52:39 51° E 21:57:46 10° NNE
Cosmos 2360 Rocket 2.8 21:55:39 33° E 21:55:39 33° E 22:00:17 10° NE
YAOGAN 6 2.5 21:55:17 49° S 21:56:10 83° WSW 21:59:43 10° NNW
Cosmos 1980 Rocket 4.3 21:51:46 10° WSW 21:56:31 28° WNW 22:01:19 10° N
Atlas Centaur 2 2.8 21:54:10 10° W 22:01:55 60° S 22:04:26 38° ESE
Delta 2 Rocket 4.4 21:59:51 10° SW 22:02:52 33° S 22:02:52 33° S
Meteor 2-4 Rocket 3.6 21:58:53 10° N 22:04:26 77° E 22:06:47 37° SSE
Cosmos 44 3.3 22:02:59 10° NW 22:07:25 67° WSW 22:08:37 46° S
NOSS 2-3 (D) 3.7 22:02:54 10° SSW 22:07:28 85° WNW 22:12:40 10° NNE
ATLAS 3B R/B 4.0 22:02:26 10° N 22:07:33 22° NE 22:09:41 19° ENE
OAO 1 Rocket 4.5 22:03:26 10° WSW 22:08:39 56° SSE 22:09:18 52° SE
Resurs 01 Rocket 4.2 22:08:09 10° SW 22:11:11 18° W 22:14:12 10° NW
NOAA 11 4.1 22:10:21 45° SE 22:12:02 73° ENE 22:17:32 10° N
Cosmos 1110 Rocket 4.2 22:15:27 48° E 22:15:27 48° E 22:19:51 10° NNE
GPS 2-05 Rocket1 4.0 22:14:59 10° W 22:17:12 39° W 22:17:12 39° W
CZ-4B DEB 4.5 22:20:20 29° NNW 22:20:20 29° NNW 22:21:56 10° NNW
Okean 1 Rocket 2.9 22:18:35 68° SSW 22:19:08 84° W 22:23:30 10° N
Cosmos 2315 Rocket 4.1 22:13:14 10° N 22:19:22 56° E 22:20:28 50° ESE
Okean 1-7 Rocket 4.3 22:16:51 10° N 22:20:18 40° NE 22:20:18 40° NE
Cosmos 2266 Rocket 4.1 22:17:25 12° SSW 22:23:01 70° W 22:29:02 10° N
Cosmos 1850 Rocket 3.9 22:20:18 10° NNW 22:25:39 87° WSW 22:26:30 64° S
Nadezhda 2 Rocket 4.3 22:24:09 51° SSE 22:25:42 70° E 22:31:51 10° N
Tiangong 1 3.8 22:24:35 10° NW 22:25:37 15° NNW 22:25:37 15° NNW
Cosmos 1331 Rocket 4.3 22:32:51 53° NE 22:32:51 53° NE 22:36:59 10° NNE
SPOT 1/Viking Rocket 4.2 22:33:49 42° NE 22:33:49 42° NE 22:38:09 10° N
ATLAS 2AS CENTAUR R/B 3.0 22:25:56 10° SSW 22:33:30 84° WNW 22:41:39 10° NNE
Cosmos 1607 4.2 22:28:04 10° NNW 22:34:26 56° ENE 22:35:13 53° E
Terra 3.7 22:41:15 19° NE 22:41:15 19° NE 22:43:13 10° NNE
Cosmos 1025 Rocket 3.8 22:39:39 10° N 22:42:44 47° N 22:42:44 47° N
USA 245 4.0 22:44:19 84° NNE 22:44:19 84° NNE 22:49:05 10° N
DELTA 2 R/B (1) 3.8 22:42:25 10° WNW 22:47:30 61° SW 22:47:30 61° SW
MetOp-A 4.3 22:48:14 60° SW 22:48:44 63° WSW 22:54:03 10° NNW
SL-08 RB Rocket 4.5 22:57:34 49° NNW 22:57:34 49° NNW 23:00:58 10° NNW
Lacrosse 5 rocket 3.5 22:54:17 10° WNW 22:55:56 20° W 22:55:56 20° W
Nimbus 7 Rocket 4.4 22:56:18 10° NNE 23:01:32 72° NNE 23:01:32 72° NNE
Cosmos 2322 Rocket 4.4 22:59:36 10° WSW 23:04:04 23° WNW 23:08:35 10° N
ARGOS 3.6 23:04:41 55° W 23:04:41 55° W 23:09:48 10° NNW
Cosmos 1932 4.4 22:59:25 10° NNW 23:05:39 81° NNE 23:05:39 81° NNE
Cosmos 1238 Rocket 4.0 22:59:48 10° N 23:06:09 75° NE 23:06:09 75° NE
Cosmos 2263 Rocket 2.8 23:04:29 10° NNW 23:09:44 50° W 23:09:44 50° W
H-2A R/B 2.7 23:12:37 51° NW 23:12:37 51° NW 23:16:28 10° NNW
Aureole 3 Rocket 4.2 23:05:24 10° N 23:14:05 86° E 23:14:09 85° E
SPOT 5 3.9 23:16:22 43° WNW 23:16:22 43° WNW 23:19:58 10° NNW
Cosmos 1844 Rocket 4.0 23:13:41 10° N 23:17:17 31° NNE 23:17:17 31° NNE
Cosmos 2322 4.3 23:20:21 53° WNW 23:20:21 53° WNW 23:25:47 10° NNE
Lacrosse 5 3.4 23:21:43 10° WSW 23:26:19 34° NW 23:30:55 10° NNE
Cosmos 2219 Rocket 4.3 23:30:51 17° NE 23:30:51 17° NE 23:32:04 10° NNE
COSMOS 2428 4.0 23:29:36 32° NNE 23:29:36 32° NNE 23:32:34 10° NNE
USA 238 DEB 4.0 23:26:57 10° NNW 23:33:14 64° NNE 23:33:14 64° NNE
USA 238 4.0 23:27:03 10° NNW 23:33:20 63° NNE 23:33:20 63° NNE
Cosmos 2360 Rocket 3.8 23:37:16 24° W 23:39:14 29° WNW 23:44:08 10° N
Cosmos 2333 Rocket 4.4 23:45:14 16° NNE 23:45:14 16° NNE 23:46:18 10° NNE
Atlas Centaur 2 4.3 23:44:25 10° W 23:47:04 22° WSW 23:47:04 22° WSW
